Regional Weather Roundup
Issued by NWS

Home | Current Version | Previous Version | Graphics & Text | Print | Product List | Glossary On
Versions: 1 2 3 4 5 6 7 8 9 10 11 12 13 14 15 16 17 18 19 20 21 22 23 24 25 26 27 28 29 30 31 32 33 34 35 36 37 38 39 40 41 42 43 44 45 46 47 48 49 50
000
ASUS43 KMKX 242010
RWRWI

WISCONSIN REGIONAL WEATHER ROUNDUP
NATIONAL WEATHER SERVICE MILWAUKEE/SULLIVAN WI
300 PM CDT WED MAY 24 2017

NOTE: "FAIR" INDICATES FEW OR NO CLOUDS BELOW 12,000 FEET WITH NO
SIGNIFICANT WEATHER AND/OR OBSTRUCTIONS TO VISIBILITY.

WIZ001-002-006>008-014>016-023>028-242100-
NORTHWEST WISCONSIN

CITY           SKY/WX    TMP DP  RH WIND       PRES   REMARKS
SUPERIOR ARPT  NOT AVBL
ASHLAND        CLOUDY    56  44  64 N9        29.78F
HAYWARD        CLOUDY    59  43  55 NE8G16    29.73F
SIREN          CLOUDY    60  40  47 CALM      29.73F
CUMBERLAND     CLOUDY    55  43  62 E7        29.72F
RICE LAKE      CLOUDY    59  44  58 NE8       29.73F
CHETEK         PTSUNNY   60  47  62 E5        29.72S
LADYSMITH      CLOUDY    59  47  63 NE12      29.73F
EAU CLAIRE     CLOUDY    62  46  55 NE12      29.69F
MENOMONIE      CLOUDY    60  46  59 N9        29.71S
NEW RICHMOND   CLOUDY    59  44  57 NE8       29.72F
OSCEOLA        CLOUDY    58  44  58 N6        29.76S
$$

WIZ003>005-009-010-017-018-242100-
NORTH CENTRAL WISCONSIN

CITY           SKY/WX    TMP DP  RH WIND       PRES   REMARKS
MANITOWISH WTR CLOUDY    51  48  88 E8        29.75S
ARBOR VITAE    CLOUDY    52  47  83 NE8       29.74S
WOODRUFF       CLOUDY    52  47  83 NE8       29.74S
RHINELANDER    CLOUDY    53  47  79 NE7       29.73F
EAGLE RIVER    CLOUDY    50  48  90 NE9       29.74S
LAND O LAKES   CLOUDY    50  47  88 N7        29.77S
PHILLIPS       CLOUDY    54  46  74 NE7       29.73F
TOMAHAWK       CLOUDY    52  46  79 N7        29.73F
MEDFORD        CLOUDY    52  46  82 NE9       29.71F
MERRILL        CLOUDY    53  49  84 NE6       29.72S
$$

WIZ029-030-035-036-043>047-242100-
CENTRAL WISCONSIN

CITY           SKY/WX    TMP DP  RH WIND       PRES   REMARKS
WAUSAU         CLOUDY    53  49  86 NE8       29.69S
MOSINEE        CLOUDY    54  52  94 N7        29.71S
MARSHFIELD     CLOUDY    54  48  80 NE7       29.69S
STEVENS POINT  CLOUDY    51  49  93 NE8       29.70S
WAUPACA        CLOUDY    55  50  85 N6        29.69S
WAUTOMA        CLOUDY    53  50  89 N8        29.68S
WISC RAPIDS    CLOUDY    56  49  77 VRB7      29.70S
CAMP DOUGLAS   CLOUDY    57  52  82 N9        29.68S
$$

WIZ011>013-019>022-031-037>040-048>050-242100-
NORTHEAST WISCONSIN

CITY           SKY/WX    TMP DP  RH WIND       PRES   REMARKS
ANTIGO         CLOUDY    52  49  88 NE12      29.71S
SHAWANO        CLOUDY    54  51  87 NE10      29.69F
OCONTO         CLOUDY    53  49  86 NE13      29.69F
STURGEON BAY   LGT RAIN  52  51  97 NE8       29.69F
GREEN BAY      CLOUDY    53  52  96 NE15G22   29.68F
MANITOWOC      CLOUDY    53  49  86 N10       29.65F
APPLETON       CLOUDY    52  52 100 NE13      29.66S
CLINTONVILLE   CLOUDY    52  50  93 NE6       29.69S
OSHKOSH        CLOUDY    53  50  89 NE12      29.66S
$$

WIZ032>034-041-042-053>061-242100-
SOUTHWEST WISCONSIN

CITY           SKY/WX    TMP DP  RH WIND       PRES   REMARKS
LA CROSSE      CLOUDY    60  50  69 NE7       29.68S
SPARTA         CLOUDY    55  50  83 N8        29.70S
VIROQUA        CLOUDY    53  50  87 MISG      29.68S
BOSCOBEL       CLOUDY    60  49  66 VRB6      29.66F
PRAIRIE DU CHI CLOUDY    57  47  70 N8        29.66S
PLATTEVILLE    CLOUDY    56  53  88 N10       29.65S
$$

WIZ056-057-062-063-064-067-068-242100-
SOUTH CENTRAL WISCONSIN

CITY           SKY/WX    TMP DP  RH WIND       PRES   REMARKS
REEDSBURG      CLOUDY    55  52  90 N8        29.67S
BARABOO/DELLS  CLOUDY    55  50  85 NE6       29.67S
LONE ROCK      CLOUDY    58  50  75 N7        29.66S
MINERAL POINT  CLOUDY    57  52  82 NE10      29.65S
MADISON        CLOUDY    54  51  90 N12       29.64S
MIDDLETON      CLOUDY    55  53  92 N10       29.65S
WATERTOWN      CLOUDY    57  53  87 N12G17    29.62S
MONROE         CLOUDY    54  52  94 N12G17    29.62F
JANESVILLE     CLOUDY    57  54  88 N14       29.60F
$$

WIZ051-052-058>065-066-070>072-242100-
SOUTHEAST WISCONSIN

CITY           SKY/WX    TMP DP  RH WIND       PRES   REMARKS
MILWAUKEE      CLOUDY    56  52  86 N18G30    29.60S
WAUKESHA       CLOUDY    57  50  77 N14       29.61F
MILWAUKEE/TIMM CLOUDY    59  48  67 N16G23    29.61F
RACINE         MOSUNNY   56  49  77 N17G25    29.60F
KENOSHA        CLOUDY    61  52  72 N22G29    29.58S
FOND DU LAC    CLOUDY    56  50  80 N13       29.65S
SHEBOYGAN      CLOUDY    54  52  93 N13       29.63F
WEST BEND      CLOUDY    57  52  82 N9        29.62F
JUNEAU         CLOUDY    55  51  86 N10G17    29.65S
$$

LSZ147-162-242100-
LAKE SUPERIOR

STATION/POSITION TIME  TEMP    WIND        PRES    WAVE
                       AIR SEA DIR/SP/G            HT/PER
                 (UTC) (F)     (DEG/KT/KT) (MB)    (FT/S)
$$

LMZ867-665-643>646-242100-
LAKE MICHIGAN

STATION/POSITION TIME  TEMP    WIND        PRES    WAVE
                       AIR SEA DIR/SP/G            HT/PER
                 (UTC) (F)     (DEG/KT/KT) (MB)    (FT/S)
$$

TC  - TEMPERATURE IN CELSIUS
VSB - VISIBILITY IN STATUTE MILES
WCI - WIND CHILL INDEX
HX  - HEAT INDEX





USA.gov is the U.S. government's official web portal to all federal, state and local government web resources and services.